Location: �terpigny
(49.8910°N, 2.9249°E)
Time: 04:16:14
(UTC+00:00)

Cosmos 332 Rocket - Pass Details

Date: 04 June 2022
Orbit: 681 x 703 km, 74.0° (Epoch: 06 July)

Event Time Altitude Azimuth Distance (km) Brightness Sun altitude
Exits shadow 22:53:06 30° 159° (SSE) 1,217 4.5 -16.6°
Maximum altitude 22:55:01 46° 106° (ESE) 914 4.2 -16.7°
Drops below altitude 10° 22:59:36 10° 34° (NE) 2,136 6.9 -16.8°
Sets 23:01:58 0° 29° (NNE) 3,058 7.9 -16.9°
